This is the latest recevied weather packets stored in our database for station/object LX0APE-4. If no packets are shown the sender has not sent any weather packets the latest 10 day(s).
| Time | Temp. | Humidity | Pressure | Rain* | Wind** | Luminosity | Snow |
|---|---|---|---|---|---|---|---|
| 1777136235 | 34.44° C | 12% | 5014.8 hPa | 0 mm | - | - | - |
| 1777135935 | 34.44° C | 12% | 5014.8 hPa | 0 mm | - | - | - |
| 1777135635 | 34.44° C | 12% | 5014.7 hPa | 0 mm | - | - | - |
| 1777135335 | 33.89° C | 12% | 5014.8 hPa | 0 mm | - | - | - |
| 1777135040 | 33.33° C | 11% | 5014.7 hPa | 0 mm | - | - | - |
| 1777135036 | 33.33° C | 11% | 5014.7 hPa | 0 mm | - | - | - |
| 1777134736 | 35° C | 12% | 5014.8 hPa | 0 mm | - | - | - |
| 1777134436 | 35.56° C | 10% | 5014.6 hPa | 0 mm | - | - | - |
| 1777134140 | 36.11° C | 10% | 5014.5 hPa | 0 mm | - | - | - |
| 1777134135 | 36.11° C | 10% | 5014.5 hPa | 0 mm | - | - | - |
| 1777133835 | 36.11° C | 10% | 5014.7 hPa | 0 mm | - | - | - |
| 1777133536 | 36.67° C | 10% | 5014.6 hPa | 0 mm | - | - | - |
| 1777133236 | 36.67° C | 10% | 5014.8 hPa | 0 mm | - | - | - |
| 1777132936 | 36.67° C | 12% | 5014.7 hPa | 0 mm | - | - | - |
| 1777132636 | 35.56° C | 10% | 5014.5 hPa | 0 mm | - | - | - |
| 1777132336 | 35.56° C | 12% | 5014.7 hPa | 0 mm | - | - | - |
| 1777132036 | 35.56° C | 12% | 5014.8 hPa | 0 mm | - | - | - |
| 1777131736 | 35° C | 12% | 5014.9 hPa | 0 mm | - | - | - |
| 1777131436 | 35° C | 12% | 5014.6 hPa | 0 mm | - | - | - |
| 1777131136 | 34.44° C | 12% | 5014.7 hPa | 0 mm | - | - | - |
| 1777130836 | 34.44° C | 13% | 5014.6 hPa | 0 mm | - | - | - |
| 1777130536 | 34.44° C | 13% | 5014.5 hPa | 0 mm | - | - | - |
| 1777130236 | 33.89° C | 13% | 5014.7 hPa | 0 mm | - | - | - |
| 1777129936 | 32.22° C | 14% | 5014.7 hPa | 0 mm | - | - | - |
| 1777129636 | 31.67° C | 14% | 5014.7 hPa | 0 mm | - | - | - |
* Rain latest hour (hover to see other rain measurements)
** Current wind speed in m/s (hover to see current wind gust speed)